This demonstration page uses our WeatherBlox Daily Observations layout. Learn more.

Left ArrowRight Arrow

Hourly Observations for August 29, 2021

Temp ( °F °C ) Dew Point ( °F °C ) Humidity (%) Winds ( mph kmh ) Pressure ( in mb ) Visibility ( mi km ) Precip ( " mm )
12:59 am 00:59 Mostly Cloudy 82 27.8 75 23.9 79 79 NE 9 15 30.17 1022 9 14 0.00 0.00
1:59 am 01:59 Mostly Cloudy 81 27.2 74 23.3 79 79 NE 6 9 30.16 1021 10 16 0.00 0.00
2:59 am 02:59 Partly Cloudy 80 26.7 73 22.8 79 79 NE 6 9 30.14 1021 9 14 0.00 0.00
3:59 am 03:59 Partly Cloudy 80 26.7 73 22.8 79 79 NE 8 13 30.15 1021 8 13 0.00 0.00
4:59 am 04:59 Partly Cloudy 80 26.7 73 22.8 79 79 NE 5 7 30.14 1021 8 13 0.00 0.00
5:59 am 05:59 Mostly Cloudy 80 26.7 73 22.8 79 79 ENE 7 11 30.13 1020 9 14 0.00 0.00
6:59 am 06:59 Mostly Cloudy 79 26.1 73 22.8 82 82 ENE 7 11 30.14 1021 8 13 0.00 0.00
7:34 am 07:34 Mostly Cloudy 80 26.7 73 22.8 79 79 NE 6 9 30.16 1021 7 11 0.00 0.00
7:59 am 07:59 Mostly Cloudy 80 26.7 73 22.8 79 79 NE 6 9 30.16 1022 7 11 0.00 0.00
8:59 am 08:59 Mostly Cloudy 81 27.2 72 22.2 74 74 N 9 15 30.17 1022 8 13 0.00 0.00
9:59 am 09:59 Mostly Cloudy 83 28.3 72 22.2 70 70 N 10 17 30.18 1022 8 13 0.00 0.00
10:59 am 10:59 Mostly Cloudy 84 28.9 73 22.8 70 70 NNE 14 22 30.17 1022 8 13 0.00 0.00
11:59 am 11:59 Mostly Cloudy 84 28.9 73 22.8 70 70 NNE 12 19 30.17 1022 8 13 0.00 0.00
12:59 pm 12:59 Mostly Cloudy 86 30 72 22.2 63 63 NNE 9 15 30.16 1021 9 14 0.00 0.00
1:59 pm 13:59 Mostly Cloudy 86 30 72 22.2 63 63 N 12 19 30.14 1021 8 13 0.00 0.00
2:59 pm 14:59 Partly Cloudy 85 29.4 72 22.2 65 65 NE 12 19 30.11 1020 9 14 0.00 0.00
3:59 pm 15:59 Mostly Cloudy 84 28.9 73 22.8 70 70 NE 8 13 30.09 1019 8 13 0.00 0.00
4:59 pm 16:59 Mostly Cloudy 83 28.3 73 22.8 72 72 ENE 8 13 30.09 1019 8 13 0.00 0.00
5:06 pm 17:06 Mostly Cloudy 83 28.3 73 22.8 72 72 NE 9 15 30.09 1019 8 13 0.00 0.00
5:14 pm 17:14 Mostly Cloudy 83 28.3 73 22.8 72 72 NNE 7 11 30.08 1019 8 13 0.00 0.00
5:59 pm 17:59 Partly Cloudy 82 27.8 73 22.8 74 74 NE 7 11 30.08 1019 8 13 0.00 0.00
6:59 pm 18:59 Mostly Sunny 82 27.8 73 22.8 74 74 NNE 7 11 30.07 1018 8 13 0.00 0.00
7:59 pm 19:59 Partly Cloudy 81 27.2 73 22.8 77 77 NNE 7 11 30.07 1018 9 14 0.00 0.00
8:59 pm 20:59 Partly Cloudy 81 27.2 73 22.8 77 77 NE 7 11 30.07 1018 9 14 0.00 0.00
9:59 pm 21:59 Partly Cloudy 81 27.2 72 22.2 74 74 NNE 5 7 30.08 1019 10 16 0.00 0.00
10:59 pm 22:59 Partly Cloudy 78 25.6 72 22.2 82 82 Calm 30.08 1019 9 14 0.00 0.00
11:59 pm 23:59 Partly Cloudy 77 25 72 22.2 85 85 Calm 30.06 1018 9 14 0.00 0.00

Powered by AerisWeather